sat.trackr.live / text

‹ back to catalog

STARLINK-35718

NORAD 66894 · 2025-283S

PAYLOAD ACTIVE UNKNOWN

§ Identity

Operator
Country
US
Launch date
2025-12-04
Launch site
AFWTR
Launch vehicle
Mass (kg)
RCS (m²)

Purposes: comms

External: N2YO · Heavens-Above · Gunter

§ Orbital elements

Epoch: 2026-09-20T07:12:53.884224Z

Period
93.85 min
Inclination
53.1583°
Eccentricity
0.0001399
Mean motion
15.34410889 rev/d
Perigee alt
461.7 km
Apogee alt
463.6 km
Semi-major
6,840.8 km
B*
5.7628e-4
RAAN
198.5382°
Arg perigee
93.1056°
Mean anomaly
267.0107°
Rev number
4,565

§ Raw data

STARLINK-357181 66894U 25283S   26263.30062366  .00019151  00000+0  57628-3 0  99952 66894  53.1583 198.5382 0001399  93.1056 267.0107 15.34410889 45658

JSON: /api/v1/satellites/66894 · /tle

For live sub-satellite position, see the globe view (requires WebGL).

§ Visibility from observer

Set your observer location to see the next 7 days of passes ≥ 10°. The values pass through the URL so the page stays shareable.

No JS? Fill the form by hand. The geolocation button needs JavaScript.